Hourly Data Report for February 25, 2021

TORONTO CITY
ONTARIO
Current Station Operator: ECCC - MSC

43°40'00.000" N
79°24'00.000" W
112.50 m
6158355
71508
XTO

Download Data

Hourly Data (February 2021)
Hourly Data Report for February 25, 2021
TIME
LST
Temp Definition
°C
Dew Point Definition
°C
Rel Hum Definition
%
Precip. Amount Definition
mm

Wind Dir Definition
10's deg

Wind Spd Definition
km/h
Visibility Definition
km
Stn Press Definition
kPa
Hmdx Definition


Wind Chill Definition


Weather Definition


00:00 1.1 -4.5 66 0.0       100.08     LegendNANA
01:00 1.0 -5.1 64 0.0       100.22     LegendNANA
02:00 0.4 -5.1 67 0.0       100.35     LegendNANA
03:00 0.2 -5.0 68 0.0       100.41     LegendNANA
04:00 -0.3 -6.2 64 0.0       100.48     LegendNANA
05:00 -1.1 -7.3 63 0.0       100.57     LegendNANA
06:00 -1.4 -7.6 63 0.0       100.65     LegendNANA
07:00 -2.0 -8.9 59 0.0       100.73     LegendNANA
08:00 -2.5 -9.3 60 0.0       100.85     LegendNANA
09:00 -2.0 -10.4 52 0.0       100.93     LegendNANA
10:00 -1.3 -10.4 50 0.0       100.95     LegendNANA
11:00 -0.7 -11.2 45 0.0       101.01     LegendNANA
12:00 0.2 -12.7 37 0.0       101.03     LegendNANA
13:00 1.2 -12.6 35 0.0       101.00     LegendNANA
14:00 1.9 -11.8 35 0.0       100.97     LegendNANA
15:00 1.3 -11.9 37 0.0       100.96     LegendNANA
16:00 1.3 -10.7 40 0.0       100.96     LegendNANA
17:00 0.9 -9.9 44 0.0       100.96     LegendNANA
18:00 0.5 -9.5 47 0.0       100.98     LegendNANA
19:00 0.2 -8.0 54 0.0       100.99     LegendNANA
20:00 0.2 -8.6 52 0.0       101.02     LegendNANA
21:00 0.2 -8.0 54 0.0       101.01     LegendNANA
22:00 0.1 -7.5 57 0.0       101.06     LegendNANA
23:00 -0.7 -6.7 64 0.0       101.07     LegendNANA

Notes on Data Quality.

Legend

  • E = Estimated
  • M = Missing
  • NA = Not Available*
  • [empty] = Indicates an unobserved value
Date modified: